contact:dominique.lefevre@mio.osupytheas.fr, maurice.libes@osupytheas.fr, didier.mallarino@osupytheas.fr
Project:EMSO http://www.emso-fr.org/EMSO-France
Depth: 2436.0 m
Title:EMSO Ligure Ouest : Data MII capteur MICROCAT
DateTime_Computer,Latitude,Longitude,Temperature,Conductivity,Pressure,DateTime_Instrument
DateTime_Computer,Latitude,Longitude,degC,S m-1,dbar,DateTime_Instrument
2022-11-18T00:01:46Z,42.805,6.029,13.3014,4.60070,2470.614,2022-11-18T02:03:44Z
2022-11-18T00:04:49Z,42.805,6.029,13.3009,4.60069,2470.624,2022-11-18T02:06:47Z
2022-11-18T00:07:52Z,42.805,6.029,13.3012,4.60064,2470.624,2022-11-18T02:09:50Z
2022-11-18T00:10:55Z,42.805,6.029,13.3011,4.60084,2470.637,2022-11-18T02:12:53Z
2022-11-18T00:13:58Z,42.805,6.029,13.3014,4.60064,2470.624,2022-11-18T02:15:56Z
2022-11-18T00:17:01Z,42.805,6.029,13.3014,4.60068,2470.6,2022-11-18T02:18:59Z
2022-11-18T00:20:04Z,42.805,6.029,13.3021,4.60059,2470.624,2022-11-18T02:22:03Z
2022-11-18T00:23:07Z,42.805,6.029,13.3011,4.60067,2470.6,2022-11-18T02:25:06Z
2022-11-18T00:26:10Z,42.805,6.029,13.3010,4.60081,2470.624,2022-11-18T02:28:09Z
2022-11-18T00:29:13Z,42.805,6.029,13.3014,4.60063,2470.6,2022-11-18T02:31:12Z
2022-11-18T00:32:16Z,42.805,6.029,13.3012,4.60069,2470.624,2022-11-18T02:34:15Z
2022-11-18T00:35:20Z,42.805,6.029,13.3011,4.60063,2470.646,2022-11-18T02:37:18Z
2022-11-18T00:38:23Z,42.805,6.029,13.3006,4.60074,2470.624,2022-11-18T02:40:21Z
2022-11-18T00:41:26Z,42.805,6.029,13.3011,4.60061,2470.6,2022-11-18T02:43:24Z
2022-11-18T00:44:29Z,42.805,6.029,13.3011,4.60066,2470.624,2022-11-18T02:46:27Z
2022-11-18T00:47:32Z,42.805,6.029,13.3013,4.60064,2470.637,2022-11-18T02:49:30Z
2022-11-18T00:50:35Z,42.805,6.029,13.3014,4.60072,2470.614,2022-11-18T02:52:33Z
2022-11-18T00:53:38Z,42.805,6.029,13.3018,4.60068,2470.637,2022-11-18T02:55:36Z
2022-11-18T00:56:41Z,42.805,6.029,13.3011,4.60072,2470.591,2022-11-18T02:58:39Z
2022-11-18T00:59:44Z,42.805,6.029,13.3015,4.60079,2470.577,2022-11-18T03:01:43Z
2022-11-18T01:02:47Z,42.805,6.029,13.3017,4.60072,2470.67,2022-11-18T03:04:46Z
2022-11-18T01:05:50Z,42.805,6.029,13.3019,4.60079,2470.661,2022-11-18T03:07:49Z
2022-11-18T01:08:53Z,42.805,6.029,13.3020,4.60093,2470.624,2022-11-18T03:10:52Z
2022-11-18T01:11:56Z,42.805,6.029,13.3029,4.60110,2470.624,2022-11-18T03:13:55Z
2022-11-18T01:15:00Z,42.805,6.029,13.3041,4.60111,2470.624,2022-11-18T03:16:58Z
2022-11-18T01:18:03Z,42.805,6.029,13.3073,4.60127,2470.646,2022-11-18T03:20:01Z
2022-11-18T01:21:06Z,42.805,6.029,13.3074,4.60141,2470.61,2022-11-18T03:23:04Z
2022-11-18T01:24:09Z,42.805,6.029,13.3096,4.60143,2470.624,2022-11-18T03:26:07Z
2022-11-18T01:27:12Z,42.805,6.029,13.3046,4.60139,2470.6,2022-11-18T03:29:10Z
2022-11-18T01:30:15Z,42.805,6.029,13.3051,4.60125,2470.624,2022-11-18T03:32:13Z
2022-11-18T01:33:18Z,42.805,6.029,13.3033,4.60156,2470.637,2022-11-18T03:35:16Z
2022-11-18T01:36:21Z,42.805,6.029,13.3036,4.60160,2470.646,2022-11-18T03:38:19Z
2022-11-18T01:39:24Z,42.805,6.029,13.3041,4.60132,2470.637,2022-11-18T03:41:23Z
2022-11-18T01:42:27Z,42.805,6.029,13.3099,4.60144,2470.6,2022-11-18T03:44:26Z
2022-11-18T01:45:30Z,42.805,6.029,13.3019,4.60185,2470.6,2022-11-18T03:47:29Z
2022-11-18T01:48:33Z,42.805,6.029,13.3021,4.60137,2470.6,2022-11-18T03:50:32Z
2022-11-18T01:51:36Z,42.805,6.029,13.3024,4.60189,2470.646,2022-11-18T03:53:35Z
2022-11-18T01:54:40Z,42.805,6.029,13.3012,4.60197,2470.624,2022-11-18T03:56:38Z
2022-11-18T01:57:43Z,42.805,6.029,13.3022,4.60165,2470.637,2022-11-18T03:59:41Z
2022-11-18T02:00:46Z,42.805,6.029,13.3039,4.60144,2470.661,2022-11-18T04:02:44Z
2022-11-18T02:03:49Z,42.805,6.029,13.3046,4.60158,2470.624,2022-11-18T04:05:47Z
2022-11-18T02:06:52Z,42.805,6.029,13.3061,4.60157,2470.6,2022-11-18T04:08:50Z
2022-11-18T02:09:55Z,42.805,6.029,13.3072,4.60152,2470.637,2022-11-18T04:11:53Z
2022-11-18T02:12:58Z,42.805,6.029,13.3079,4.60134,2470.646,2022-11-18T04:14:56Z
2022-11-18T02:16:01Z,42.805,6.029,13.3070,4.60110,2470.661,2022-11-18T04:18:00Z
2022-11-18T02:19:04Z,42.805,6.029,13.3085,4.60096,2470.646,2022-11-18T04:21:03Z
2022-11-18T02:22:07Z,42.805,6.029,13.3088,4.60127,2470.6,2022-11-18T04:24:06Z
2022-11-18T02:25:10Z,42.805,6.029,13.3082,4.60113,2470.661,2022-11-18T04:27:09Z
2022-11-18T02:28:13Z,42.805,6.029,13.3088,4.60092,2470.614,2022-11-18T04:30:12Z
2022-11-18T02:31:16Z,42.805,6.029,13.3087,4.60102,2470.637,2022-11-18T04:33:15Z
2022-11-18T02:34:20Z,42.805,6.029,13.3089,4.60098,2470.624,2022-11-18T04:36:18Z
2022-11-18T02:37:23Z,42.805,6.029,13.3085,4.60097,2470.661,2022-11-18T04:39:21Z
2022-11-18T02:40:26Z,42.805,6.029,13.3081,4.60092,2470.661,2022-11-18T04:42:24Z
2022-11-18T02:43:29Z,42.805,6.029,13.3080,4.60097,2470.661,2022-11-18T04:45:27Z
2022-11-18T02:46:32Z,42.805,6.029,13.3080,4.60097,2470.684,2022-11-18T04:48:30Z
2022-11-18T02:49:35Z,42.805,6.029,13.3081,4.60106,2470.624,2022-11-18T04:51:33Z
2022-11-18T02:52:38Z,42.805,6.029,13.3076,4.60108,2470.614,2022-11-18T04:54:36Z
2022-11-18T02:55:41Z,42.805,6.029,13.3046,4.60116,2470.646,2022-11-18T04:57:40Z
2022-11-18T02:58:44Z,42.805,6.029,13.3060,4.60112,2470.646,2022-11-18T05:00:43Z
2022-11-18T03:01:47Z,42.805,6.029,13.3043,4.60127,2470.661,2022-11-18T05:03:46Z
2022-11-18T03:04:50Z,42.805,6.029,13.3036,4.60128,2470.661,2022-11-18T05:06:49Z
2022-11-18T03:07:53Z,42.805,6.029,13.3036,4.60121,2470.661,2022-11-18T05:09:52Z
2022-11-18T03:10:57Z,42.805,6.029,13.3024,4.60166,2470.661,2022-11-18T05:12:55Z
2022-11-18T03:14:00Z,42.805,6.029,13.3026,4.60124,2470.661,2022-11-18T05:15:58Z
2022-11-18T03:17:03Z,42.805,6.029,13.3016,4.60110,2470.637,2022-11-18T05:19:01Z
2022-11-18T03:20:06Z,42.805,6.029,13.3014,4.60111,2470.646,2022-11-18T05:22:04Z
2022-11-18T03:23:09Z,42.805,6.029,13.3033,4.60110,2470.624,2022-11-18T05:25:07Z
2022-11-18T03:26:12Z,42.805,6.029,13.3093,4.60124,2470.624,2022-11-18T05:28:10Z
2022-11-18T03:29:15Z,42.805,6.029,13.3085,4.60107,2470.61,2022-11-18T05:31:13Z
2022-11-18T03:32:18Z,42.805,6.029,13.3063,4.60104,2470.661,2022-11-18T05:34:16Z
2022-11-18T03:35:21Z,42.805,6.029,13.3014,4.60110,2470.661,2022-11-18T05:37:20Z
2022-11-18T03:38:24Z,42.805,6.029,13.3005,4.60107,2470.624,2022-11-18T05:40:23Z
2022-11-18T03:41:27Z,42.805,6.029,13.3007,4.60102,2470.624,2022-11-18T05:43:26Z
2022-11-18T03:44:30Z,42.805,6.029,13.3007,4.60119,2470.67,2022-11-18T05:46:29Z
2022-11-18T03:47:33Z,42.805,6.029,13.3027,4.60080,2470.624,2022-11-18T05:49:32Z
2022-11-18T03:50:37Z,42.805,6.029,13.3023,4.60099,2470.646,2022-11-18T05:52:35Z
2022-11-18T03:53:40Z,42.805,6.029,13.3021,4.60125,2470.661,2022-11-18T05:55:38Z
2022-11-18T03:56:43Z,42.805,6.029,13.3056,4.60092,2470.624,2022-11-18T05:58:41Z
2022-11-18T03:59:46Z,42.805,6.029,13.3067,4.60096,2470.646,2022-11-18T06:01:44Z
2022-11-18T04:02:49Z,42.805,6.029,13.3060,4.60099,2470.67,2022-11-18T06:04:47Z
2022-11-18T04:05:52Z,42.805,6.029,13.3025,4.60109,2470.624,2022-11-18T06:07:50Z
2022-11-18T04:08:55Z,42.805,6.029,13.3018,4.60140,2470.646,2022-11-18T06:10:53Z
2022-11-18T04:11:58Z,42.805,6.029,13.3031,4.60094,2470.637,2022-11-18T06:13:56Z
2022-11-18T04:15:01Z,42.805,6.029,13.3047,4.60096,2470.661,2022-11-18T06:17:00Z
2022-11-18T04:18:04Z,42.805,6.029,13.3073,4.60108,2470.661,2022-11-18T06:20:03Z
2022-11-18T04:21:07Z,42.805,6.029,13.3084,4.60084,2470.646,2022-11-18T06:23:06Z
2022-11-18T04:24:10Z,42.805,6.029,13.3069,4.60112,2470.646,2022-11-18T06:26:09Z
2022-11-18T04:27:13Z,42.805,6.029,13.3060,4.60115,2470.661,2022-11-18T06:29:12Z
2022-11-18T04:30:17Z,42.805,6.029,13.3052,4.60095,2470.684,2022-11-18T06:32:15Z
2022-11-18T04:33:20Z,42.805,6.029,13.3069,4.60100,2470.646,2022-11-18T06:35:18Z
2022-11-18T04:36:23Z,42.805,6.029,13.3057,4.60097,2470.624,2022-11-18T06:38:21Z
2022-11-18T04:39:26Z,42.805,6.029,13.3054,4.60084,2470.646,2022-11-18T06:41:24Z
2022-11-18T04:42:29Z,42.805,6.029,13.3051,4.60092,2470.624,2022-11-18T06:44:27Z
2022-11-18T04:45:32Z,42.805,6.029,13.3059,4.60099,2470.661,2022-11-18T06:47:30Z
2022-11-18T04:48:35Z,42.805,6.029,13.3052,4.60106,2470.661,2022-11-18T06:50:33Z
2022-11-18T04:51:38Z,42.805,6.029,13.3052,4.60099,2470.646,2022-11-18T06:53:36Z
2022-11-18T04:54:41Z,42.805,6.029,13.3054,4.60088,2470.67,2022-11-18T06:56:40Z
2022-11-18T04:57:44Z,42.805,6.029,13.3053,4.60087,2470.661,2022-11-18T06:59:43Z
2022-11-18T05:00:47Z,42.805,6.029,13.3040,4.60091,2470.646,2022-11-18T07:02:46Z
2022-11-18T05:03:50Z,42.805,6.029,13.3062,4.60100,2470.637,2022-11-18T07:05:49Z
2022-11-18T05:06:53Z,42.805,6.029,13.3026,4.60113,2470.661,2022-11-18T07:08:52Z
2022-11-18T05:09:57Z,42.805,6.029,13.3024,4.60104,2470.6,2022-11-18T07:11:55Z
2022-11-18T05:13:00Z,42.805,6.029,13.3036,4.60079,2470.637,2022-11-18T07:14:58Z
2022-11-18T05:16:03Z,42.805,6.029,13.3031,4.60088,2470.6,2022-11-18T07:18:01Z
2022-11-18T05:19:06Z,42.805,6.029,13.3046,4.60113,2470.637,2022-11-18T07:21:04Z
2022-11-18T05:22:09Z,42.805,6.029,13.3082,4.60093,2470.624,2022-11-18T07:24:07Z
2022-11-18T05:25:12Z,42.805,6.029,13.3058,4.60086,2470.661,2022-11-18T07:27:10Z
2022-11-18T05:28:15Z,42.805,6.029,13.3058,4.60102,2470.646,2022-11-18T07:30:13Z
2022-11-18T05:31:18Z,42.805,6.029,13.3076,4.60110,2470.637,2022-11-18T07:33:17Z
2022-11-18T05:34:21Z,42.805,6.029,13.3050,4.60104,2470.6,2022-11-18T07:36:20Z
2022-11-18T05:37:24Z,42.805,6.029,13.3056,4.60097,2470.624,2022-11-18T07:39:23Z
2022-11-18T05:40:27Z,42.805,6.029,13.3059,4.60102,2470.624,2022-11-18T07:42:26Z
2022-11-18T05:43:30Z,42.805,6.029,13.3084,4.60094,2470.633,2022-11-18T07:45:29Z
2022-11-18T05:46:33Z,42.805,6.029,13.3061,4.60104,2470.646,2022-11-18T07:48:32Z
2022-11-18T05:49:37Z,42.805,6.029,13.3011,4.60097,2470.637,2022-11-18T07:51:35Z
2022-11-18T05:52:40Z,42.805,6.029,13.3019,4.60089,2470.661,2022-11-18T07:54:38Z
2022-11-18T05:55:43Z,42.805,6.029,13.3035,4.60083,2470.661,2022-11-18T07:57:41Z
2022-11-18T05:58:46Z,42.805,6.029,13.3012,4.60084,2470.637,2022-11-18T08:00:44Z
2022-11-18T06:01:49Z,42.805,6.029,13.3010,4.60089,2470.646,2022-11-18T08:03:47Z
2022-11-18T06:04:52Z,42.805,6.029,13.3010,4.60077,2470.6,2022-11-18T08:06:50Z
2022-11-18T06:07:55Z,42.805,6.029,13.3011,4.60068,2470.624,2022-11-18T08:09:53Z
2022-11-18T06:10:58Z,42.805,6.029,13.3010,4.60076,2470.624,2022-11-18T08:12:57Z
2022-11-18T06:14:01Z,42.805,6.029,13.3011,4.60069,2470.637,2022-11-18T08:16:00Z
2022-11-18T06:17:04Z,42.805,6.029,13.3011,4.60067,2470.637,2022-11-18T08:19:03Z
2022-11-18T06:20:07Z,42.805,6.029,13.3009,4.60068,2470.637,2022-11-18T08:22:06Z
2022-11-18T06:23:10Z,42.805,6.029,13.3013,4.60072,2470.637,2022-11-18T08:25:09Z
2022-11-18T06:26:14Z,42.805,6.029,13.3010,4.60078,2470.661,2022-11-18T08:28:12Z
2022-11-18T06:29:17Z,42.805,6.029,13.3010,4.60066,2470.624,2022-11-18T08:31:15Z
2022-11-18T06:32:20Z,42.805,6.029,13.3012,4.60069,2470.637,2022-11-18T08:34:18Z
2022-11-18T06:35:23Z,42.805,6.029,13.3013,4.60063,2470.624,2022-11-18T08:37:21Z
2022-11-18T06:38:26Z,42.805,6.029,13.3013,4.60069,2470.61,2022-11-18T08:40:24Z
2022-11-18T06:41:29Z,42.805,6.029,13.3015,4.60073,2470.6,2022-11-18T08:43:27Z
2022-11-18T06:44:32Z,42.805,6.029,13.3012,4.60069,2470.6,2022-11-18T08:46:30Z
2022-11-18T06:47:35Z,42.805,6.029,13.3008,4.60063,2470.591,2022-11-18T08:49:33Z
2022-11-18T06:50:38Z,42.805,6.029,13.3009,4.60065,2470.624,2022-11-18T08:52:37Z
2022-11-18T06:53:41Z,42.805,6.029,13.3010,4.60072,2470.637,2022-11-18T08:55:40Z
2022-11-18T06:56:44Z,42.805,6.029,13.3010,4.60066,2470.624,2022-11-18T08:58:43Z
2022-11-18T06:59:47Z,42.805,6.029,13.3009,4.60062,2470.624,2022-11-18T09:01:46Z
2022-11-18T07:02:50Z,42.805,6.029,13.3009,4.60062,2470.6,2022-11-18T09:04:49Z
2022-11-18T07:05:54Z,42.805,6.029,13.3012,4.60064,2470.591,2022-11-18T09:07:52Z
2022-11-18T07:08:57Z,42.805,6.029,13.3009,4.60062,2470.614,2022-11-18T09:10:55Z
2022-11-18T07:12:00Z,42.805,6.029,13.3009,4.60059,2470.6,2022-11-18T09:13:58Z
2022-11-18T07:15:03Z,42.805,6.029,13.3011,4.60062,2470.614,2022-11-18T09:17:01Z
2022-11-18T07:18:06Z,42.805,6.029,13.3008,4.60058,2470.614,2022-11-18T09:20:04Z
2022-11-18T07:21:09Z,42.805,6.029,13.3011,4.60057,2470.6,2022-11-18T09:23:07Z
2022-11-18T07:24:12Z,42.805,6.029,13.3009,4.60062,2470.624,2022-11-18T09:26:10Z
2022-11-18T07:27:15Z,42.805,6.029,13.3009,4.60061,2470.6,2022-11-18T09:29:13Z
2022-11-18T07:30:18Z,42.805,6.029,13.3008,4.60058,2470.637,2022-11-18T09:32:17Z
2022-11-18T07:33:21Z,42.805,6.029,13.3011,4.60057,2470.637,2022-11-18T09:35:20Z
2022-11-18T07:36:24Z,42.805,6.029,13.3009,4.60058,2470.577,2022-11-18T09:38:23Z
2022-11-18T07:39:27Z,42.805,6.029,13.3013,4.60061,2470.6,2022-11-18T09:41:26Z
2022-11-18T07:42:30Z,42.805,6.029,13.3008,4.60057,2470.6,2022-11-18T09:44:29Z
2022-11-18T07:45:33Z,42.805,6.029,13.3007,4.60061,2470.624,2022-11-18T09:47:32Z
2022-11-18T07:48:37Z,42.805,6.029,13.3011,4.60062,2470.624,2022-11-18T09:50:35Z
2022-11-18T07:51:40Z,42.805,6.029,13.3010,4.60061,2470.6,2022-11-18T09:53:38Z
2022-11-18T07:54:43Z,42.805,6.029,13.3009,4.60062,2470.6,2022-11-18T09:56:41Z
2022-11-18T07:57:46Z,42.805,6.029,13.3013,4.60062,2470.6,2022-11-18T09:59:44Z
2022-11-18T08:00:49Z,42.805,6.029,13.3008,4.60060,2470.6,2022-11-18T10:02:47Z
2022-11-18T08:03:52Z,42.805,6.029,13.3009,4.60060,2470.577,2022-11-18T10:05:50Z
2022-11-18T08:06:55Z,42.805,6.029,13.3010,4.60058,2470.624,2022-11-18T10:08:53Z
2022-11-18T08:09:58Z,42.805,6.029,13.3003,4.60058,2470.614,2022-11-18T10:11:57Z
2022-11-18T08:13:01Z,42.805,6.029,13.3009,4.60059,2470.624,2022-11-18T10:15:00Z
2022-11-18T08:16:04Z,42.805,6.029,13.3010,4.60059,2470.577,2022-11-18T10:18:03Z
2022-11-18T08:19:07Z,42.805,6.029,13.3009,4.60059,2470.6,2022-11-18T10:21:06Z
2022-11-18T08:22:10Z,42.805,6.029,13.3009,4.60057,2470.577,2022-11-18T10:24:09Z
2022-11-18T08:25:14Z,42.805,6.029,13.3009,4.60058,2470.586,2022-11-18T10:27:12Z
2022-11-18T08:28:17Z,42.805,6.029,13.3014,4.60059,2470.6,2022-11-18T10:30:15Z
2022-11-18T08:31:20Z,42.805,6.029,13.3006,4.60058,2470.6,2022-11-18T10:33:18Z
2022-11-18T08:34:23Z,42.805,6.029,13.3010,4.60059,2470.614,2022-11-18T10:36:21Z
2022-11-18T08:37:26Z,42.805,6.029,13.3006,4.60057,2470.637,2022-11-18T10:39:24Z
2022-11-18T08:40:29Z,42.805,6.029,13.3012,4.60057,2470.577,2022-11-18T10:42:27Z
2022-11-18T08:43:32Z,42.805,6.029,13.3009,4.60059,2470.637,2022-11-18T10:45:30Z
2022-11-18T08:46:35Z,42.805,6.029,13.3006,4.60056,2470.637,2022-11-18T10:48:34Z
2022-11-18T08:49:38Z,42.805,6.029,13.3007,4.60057,2470.624,2022-11-18T10:51:37Z
2022-11-18T08:52:41Z,42.805,6.029,13.3009,4.60057,2470.553,2022-11-18T10:54:40Z
2022-11-18T08:55:44Z,42.805,6.029,13.3009,4.60057,2470.6,2022-11-18T10:57:43Z
2022-11-18T08:58:47Z,42.805,6.029,13.3008,4.60057,2470.6,2022-11-18T11:00:46Z
2022-11-18T09:01:51Z,42.805,6.029,13.3008,4.60058,2470.6,2022-11-18T11:03:49Z
2022-11-18T09:04:54Z,42.805,6.029,13.3010,4.60058,2470.577,2022-11-18T11:06:52Z
2022-11-18T09:07:57Z,42.805,6.029,13.3011,4.60058,2470.577,2022-11-18T11:09:55Z
2022-11-18T09:11:00Z,42.805,6.029,13.3009,4.60059,2470.577,2022-11-18T11:12:58Z
2022-11-18T09:14:03Z,42.805,6.029,13.3006,4.60059,2470.577,2022-11-18T11:16:01Z
2022-11-18T09:17:06Z,42.805,6.029,13.3005,4.60060,2470.586,2022-11-18T11:19:04Z
2022-11-18T09:20:09Z,42.805,6.029,13.3009,4.60062,2470.6,2022-11-18T11:22:07Z
2022-11-18T09:23:12Z,42.805,6.029,13.3010,4.60057,2470.577,2022-11-18T11:25:10Z
2022-11-18T09:26:15Z,42.805,6.029,13.3011,4.60058,2470.577,2022-11-18T11:28:14Z
2022-11-18T09:29:18Z,42.805,6.029,13.3009,4.60058,2470.637,2022-11-18T11:31:17Z
2022-11-18T09:32:21Z,42.805,6.029,13.3013,4.60059,2470.637,2022-11-18T11:34:20Z
2022-11-18T09:35:24Z,42.805,6.029,13.3009,4.60057,2470.6,2022-11-18T11:37:23Z
2022-11-18T09:38:28Z,42.805,6.029,13.3011,4.60059,2470.614,2022-11-18T11:40:26Z
2022-11-18T09:41:31Z,42.805,6.029,13.3007,4.60056,2470.614,2022-11-18T11:43:29Z
2022-11-18T09:44:34Z,42.805,6.029,13.3011,4.60057,2470.614,2022-11-18T11:46:32Z
2022-11-18T09:47:37Z,42.805,6.029,13.3011,4.60058,2470.614,2022-11-18T11:49:35Z
2022-11-18T09:50:40Z,42.805,6.029,13.3010,4.60059,2470.624,2022-11-18T11:52:38Z
2022-11-18T09:53:43Z,42.805,6.029,13.3008,4.60057,2470.6,2022-11-18T11:55:41Z
2022-11-18T09:56:46Z,42.805,6.029,13.3011,4.60058,2470.624,2022-11-18T11:58:44Z
2022-11-18T09:59:49Z,42.805,6.029,13.3009,4.60057,2470.624,2022-11-18T12:01:48Z
2022-11-18T10:02:52Z,42.805,6.029,13.3009,4.60058,2470.6,2022-11-18T12:04:51Z
2022-11-18T10:05:55Z,42.805,6.029,13.3009,4.60060,2470.624,2022-11-18T12:07:54Z
2022-11-18T10:08:58Z,42.805,6.029,13.3006,4.60057,2470.624,2022-11-18T12:10:57Z
2022-11-18T10:12:01Z,42.805,6.029,13.3010,4.60058,2470.6,2022-11-18T12:14:00Z
2022-11-18T10:15:05Z,42.805,6.029,13.3007,4.60059,2470.614,2022-11-18T12:17:03Z
2022-11-18T10:18:08Z,42.805,6.029,13.3008,4.60060,2470.646,2022-11-18T12:20:06Z
2022-11-18T10:21:11Z,42.805,6.029,13.3013,4.60056,2470.637,2022-11-18T12:23:09Z
2022-11-18T10:24:14Z,42.805,6.029,13.3011,4.60057,2470.624,2022-11-18T12:26:12Z
2022-11-18T10:27:17Z,42.805,6.029,13.3009,4.60057,2470.646,2022-11-18T12:29:15Z
2022-11-18T10:30:20Z,42.805,6.029,13.3010,4.60061,2470.6,2022-11-18T12:32:18Z
2022-11-18T10:33:23Z,42.805,6.029,13.3011,4.60058,2470.637,2022-11-18T12:35:21Z
2022-11-18T10:36:26Z,42.805,6.029,13.3009,4.60058,2470.624,2022-11-18T12:38:25Z
2022-11-18T10:39:29Z,42.805,6.029,13.3008,4.60059,2470.661,2022-11-18T12:41:28Z
2022-11-18T10:42:32Z,42.805,6.029,13.3010,4.60064,2470.624,2022-11-18T12:44:31Z
2022-11-18T10:45:35Z,42.805,6.029,13.3010,4.60060,2470.624,2022-11-18T12:47:34Z
2022-11-18T10:48:38Z,42.805,6.029,13.3009,4.60060,2470.614,2022-11-18T12:50:37Z
2022-11-18T10:51:42Z,42.805,6.029,13.3010,4.60059,2470.67,2022-11-18T12:53:40Z
2022-11-18T10:54:45Z,42.805,6.029,13.3007,4.60056,2470.624,2022-11-18T12:56:43Z
2022-11-18T10:57:48Z,42.805,6.029,13.3009,4.60058,2470.646,2022-11-18T12:59:46Z
2022-11-18T11:00:51Z,42.805,6.029,13.3012,4.60057,2470.661,2022-11-18T13:02:49Z
2022-11-18T11:03:54Z,42.805,6.029,13.3012,4.60057,2470.624,2022-11-18T13:05:52Z
2022-11-18T11:06:57Z,42.805,6.029,13.3009,4.60056,2470.646,2022-11-18T13:08:55Z
2022-11-18T11:10:00Z,42.805,6.029,13.3012,4.60057,2470.646,2022-11-18T13:11:58Z
2022-11-18T11:13:03Z,42.805,6.029,13.3011,4.60057,2470.67,2022-11-18T13:15:02Z
2022-11-18T11:16:06Z,42.805,6.029,13.3011,4.60058,2470.637,2022-11-18T13:18:05Z
2022-11-18T11:19:09Z,42.805,6.029,13.3007,4.60060,2470.661,2022-11-18T13:21:08Z
2022-11-18T11:22:12Z,42.805,6.029,13.3010,4.60059,2470.646,2022-11-18T13:24:11Z
2022-11-18T11:25:15Z,42.805,6.029,13.3009,4.60059,2470.646,2022-11-18T13:27:14Z
2022-11-18T11:28:19Z,42.805,6.029,13.3006,4.60060,2470.67,2022-11-18T13:30:17Z
2022-11-18T11:31:22Z,42.805,6.029,13.3012,4.60059,2470.646,2022-11-18T13:33:20Z
2022-11-18T11:34:25Z,42.805,6.029,13.3011,4.60058,2470.661,2022-11-18T13:36:23Z
2022-11-18T11:37:28Z,42.805,6.029,13.3011,4.60059,2470.661,2022-11-18T13:39:26Z
2022-11-18T11:40:31Z,42.805,6.029,13.3011,4.60059,2470.67,2022-11-18T13:42:29Z
2022-11-18T11:43:34Z,42.805,6.029,13.3012,4.60057,2470.646,2022-11-18T13:45:32Z
2022-11-18T11:46:37Z,42.805,6.029,13.3007,4.60059,2470.646,2022-11-18T13:48:35Z
2022-11-18T11:49:40Z,42.805,6.029,13.3010,4.60062,2470.646,2022-11-18T13:51:39Z
2022-11-18T11:52:43Z,42.805,6.029,13.3008,4.60057,2470.661,2022-11-18T13:54:42Z
2022-11-18T11:55:46Z,42.805,6.029,13.3007,4.60056,2470.684,2022-11-18T13:57:45Z
2022-11-18T11:58:49Z,42.805,6.029,13.3008,4.60056,2470.684,2022-11-18T14:00:48Z
2022-11-18T12:01:52Z,42.805,6.029,13.3008,4.60059,2470.646,2022-11-18T14:03:51Z
2022-11-18T12:04:56Z,42.805,6.029,13.3009,4.60057,2470.67,2022-11-18T14:06:54Z
2022-11-18T12:07:59Z,42.805,6.029,13.3008,4.60059,2470.646,2022-11-18T14:09:57Z
2022-11-18T12:11:02Z,42.805,6.029,13.3011,4.60057,2470.646,2022-11-18T14:13:00Z
2022-11-18T12:14:05Z,42.805,6.029,13.3007,4.60058,2470.624,2022-11-18T14:16:03Z
2022-11-18T12:17:08Z,42.805,6.029,13.3008,4.60059,2470.693,2022-11-18T14:19:06Z
2022-11-18T12:20:11Z,42.805,6.029,13.3009,4.60059,2470.693,2022-11-18T14:22:09Z
2022-11-18T12:23:14Z,42.805,6.029,13.3006,4.60058,2470.693,2022-11-18T14:25:12Z
2022-11-18T12:26:17Z,42.805,6.029,13.3011,4.60059,2470.707,2022-11-18T14:28:16Z
2022-11-18T12:29:20Z,42.805,6.029,13.3006,4.60057,2470.693,2022-11-18T14:31:19Z
2022-11-18T12:32:23Z,42.805,6.029,13.3008,4.60057,2470.684,2022-11-18T14:34:22Z
2022-11-18T12:35:26Z,42.805,6.029,13.3009,4.60059,2470.707,2022-11-18T14:37:25Z
2022-11-18T12:38:29Z,42.805,6.029,13.3008,4.60059,2470.693,2022-11-18T14:40:28Z
2022-11-18T12:41:33Z,42.805,6.029,13.3010,4.60060,2470.646,2022-11-18T14:43:31Z
2022-11-18T12:44:36Z,42.805,6.029,13.3008,4.60058,2470.67,2022-11-18T14:46:34Z
2022-11-18T12:47:39Z,42.805,6.029,13.3006,4.60058,2470.67,2022-11-18T14:49:37Z
2022-11-18T12:50:42Z,42.805,6.029,13.3006,4.60056,2470.656,2022-11-18T14:52:40Z
2022-11-18T12:53:45Z,42.805,6.029,13.3009,4.60058,2470.67,2022-11-18T14:55:43Z
2022-11-18T12:56:48Z,42.805,6.029,13.3007,4.60057,2470.693,2022-11-18T14:58:46Z
2022-11-18T12:59:51Z,42.805,6.029,13.3008,4.60057,2470.67,2022-11-18T15:01:49Z
2022-11-18T13:02:54Z,42.805,6.029,13.3009,4.60058,2470.684,2022-11-18T15:04:53Z
2022-11-18T13:05:57Z,42.805,6.029,13.3008,4.60057,2470.684,2022-11-18T15:07:56Z
2022-11-18T13:09:00Z,42.805,6.029,13.3006,4.60057,2470.73,2022-11-18T15:10:59Z
2022-11-18T13:12:03Z,42.805,6.029,13.3007,4.60057,2470.67,2022-11-18T15:14:02Z
2022-11-18T13:15:06Z,42.805,6.029,13.3007,4.60057,2470.693,2022-11-18T15:17:05Z
2022-11-18T13:18:10Z,42.805,6.029,13.3012,4.60057,2470.707,2022-11-18T15:20:08Z
2022-11-18T13:21:13Z,42.805,6.029,13.3008,4.60057,2470.684,2022-11-18T15:23:11Z
2022-11-18T13:24:16Z,42.805,6.029,13.3010,4.60057,2470.684,2022-11-18T15:26:14Z
2022-11-18T13:27:19Z,42.805,6.029,13.3009,4.60057,2470.717,2022-11-18T15:29:17Z
2022-11-18T13:30:22Z,42.805,6.029,13.3010,4.60056,2470.707,2022-11-18T15:32:20Z
2022-11-18T13:33:25Z,42.805,6.029,13.3008,4.60059,2470.656,2022-11-18T15:35:23Z
2022-11-18T13:36:28Z,42.805,6.029,13.3009,4.60057,2470.684,2022-11-18T15:38:26Z
2022-11-18T13:39:31Z,42.805,6.029,13.3009,4.60056,2470.656,2022-11-18T15:41:30Z
2022-11-18T13:42:34Z,42.805,6.029,13.3010,4.60064,2470.67,2022-11-18T15:44:33Z
2022-11-18T13:45:37Z,42.805,6.029,13.3009,4.60066,2470.684,2022-11-18T15:47:36Z
2022-11-18T13:48:40Z,42.805,6.029,13.3009,4.60057,2470.693,2022-11-18T15:50:39Z
2022-11-18T13:51:43Z,42.805,6.029,13.3009,4.60061,2470.707,2022-11-18T15:53:42Z
2022-11-18T13:54:47Z,42.805,6.029,13.3006,4.60058,2470.693,2022-11-18T15:56:45Z
2022-11-18T13:57:50Z,42.805,6.029,13.3012,4.60057,2470.73,2022-11-18T15:59:48Z
2022-11-18T14:00:53Z,42.805,6.029,13.3009,4.60057,2470.693,2022-11-18T16:02:51Z
2022-11-18T14:03:56Z,42.805,6.029,13.3009,4.60062,2470.717,2022-11-18T16:05:54Z
2022-11-18T14:06:59Z,42.805,6.029,13.3011,4.60057,2470.67,2022-11-18T16:08:57Z
2022-11-18T14:10:02Z,42.805,6.029,13.3010,4.60059,2470.717,2022-11-18T16:12:00Z
2022-11-18T14:13:05Z,42.805,6.029,13.3010,4.60059,2470.693,2022-11-18T16:15:03Z
2022-11-18T14:16:08Z,42.805,6.029,13.3011,4.60058,2470.707,2022-11-18T16:18:07Z
2022-11-18T14:19:11Z,42.805,6.029,13.3011,4.60058,2470.693,2022-11-18T16:21:10Z
2022-11-18T14:22:14Z,42.805,6.029,13.3008,4.60065,2470.717,2022-11-18T16:24:13Z
2022-11-18T14:25:17Z,42.805,6.029,13.3008,4.60061,2470.74,2022-11-18T16:27:16Z
2022-11-18T14:28:20Z,42.805,6.029,13.3009,4.60059,2470.717,2022-11-18T16:30:19Z
2022-11-18T14:31:24Z,42.805,6.029,13.3010,4.60062,2470.717,2022-11-18T16:33:22Z
2022-11-18T14:34:27Z,42.805,6.029,13.3009,4.60055,2470.74,2022-11-18T16:36:25Z
2022-11-18T14:37:30Z,42.805,6.029,13.3009,4.60069,2470.717,2022-11-18T16:39:28Z
2022-11-18T14:40:33Z,42.805,6.029,13.3012,4.60070,2470.73,2022-11-18T16:42:31Z
2022-11-18T14:43:36Z,42.805,6.029,13.3014,4.60064,2470.717,2022-11-18T16:45:34Z
2022-11-18T14:46:39Z,42.805,6.029,13.3009,4.60072,2470.707,2022-11-18T16:48:37Z
2022-11-18T14:49:42Z,42.805,6.029,13.3009,4.60067,2470.74,2022-11-18T16:51:40Z
2022-11-18T14:52:45Z,42.805,6.029,13.3006,4.60068,2470.73,2022-11-18T16:54:44Z
2022-11-18T14:55:48Z,42.805,6.029,13.3012,4.60061,2470.717,2022-11-18T16:57:47Z
2022-11-18T14:58:51Z,42.805,6.029,13.3009,4.60064,2470.73,2022-11-18T17:00:50Z
2022-11-18T15:01:54Z,42.805,6.029,13.3011,4.60062,2470.74,2022-11-18T17:03:53Z